Year,Month,Day,Hour,Minute,Value (Times are PST for temperature in C)
2014,05,02,00,00,12.80
2014,05,02,00,01,12.80
2014,05,02,00,02,12.80
2014,05,02,00,03,12.80
2014,05,02,00,04,12.80
2014,05,02,00,05,12.80
2014,05,02,00,06,12.80
2014,05,02,00,07,12.80
2014,05,02,00,08,12.80
2014,05,02,00,09,12.80
2014,05,02,00,10,12.80
2014,05,02,00,11,12.80
2014,05,02,00,12,12.80
2014,05,02,00,13,12.80
2014,05,02,00,14,12.80
2014,05,02,00,15,12.80
2014,05,02,00,16,12.70
2014,05,02,00,17,12.80
2014,05,02,00,18,12.70
2014,05,02,00,19,12.80
2014,05,02,00,20,12.70
2014,05,02,00,21,12.70
2014,05,02,00,22,12.70
2014,05,02,00,23,12.70
2014,05,02,00,24,12.70
2014,05,02,00,25,12.70
2014,05,02,00,26,12.70
2014,05,02,00,27,12.70
2014,05,02,00,28,12.70
2014,05,02,00,29,12.70
2014,05,02,00,30,12.70
2014,05,02,00,31,12.70
2014,05,02,00,32,12.70
2014,05,02,00,33,12.70
2014,05,02,00,34,12.70
2014,05,02,00,35,12.70
2014,05,02,00,36,12.70
2014,05,02,00,37,12.70
2014,05,02,00,38,12.70
2014,05,02,00,39,12.70
2014,05,02,00,40,12.70
2014,05,02,00,41,12.70
2014,05,02,00,42,12.70
2014,05,02,00,43,12.70
2014,05,02,00,44,12.70
2014,05,02,00,45,12.70
2014,05,02,00,46,12.70
2014,05,02,00,47,12.70
2014,05,02,00,48,12.70
2014,05,02,00,49,12.70
2014,05,02,00,50,12.70
2014,05,02,00,51,12.70
2014,05,02,00,52,12.70
2014,05,02,00,53,12.70
2014,05,02,00,54,12.70
2014,05,02,00,55,12.70
2014,05,02,00,56,12.70
2014,05,02,00,57,12.70
2014,05,02,00,58,12.70
2014,05,02,00,59,12.70
2014,05,02,01,00,12.70
2014,05,02,01,01,12.70
2014,05,02,01,02,12.70
2014,05,02,01,03,12.70
2014,05,02,01,04,12.70
2014,05,02,01,05,12.70
2014,05,02,01,06,12.70
2014,05,02,01,07,12.70
2014,05,02,01,08,12.70
2014,05,02,01,09,12.70
2014,05,02,01,10,12.70
2014,05,02,01,11,12.70
2014,05,02,01,12,12.70
2014,05,02,01,13,12.70
2014,05,02,01,14,12.70
2014,05,02,01,15,12.70
2014,05,02,01,16,12.70
2014,05,02,01,17,12.70
2014,05,02,01,18,12.70
2014,05,02,01,19,12.60
2014,05,02,01,20,12.60
2014,05,02,01,21,12.60
2014,05,02,01,22,12.60
2014,05,02,01,23,12.60
2014,05,02,01,24,12.60
2014,05,02,01,25,12.60
2014,05,02,01,26,12.60
2014,05,02,01,27,12.50
2014,05,02,01,28,12.50
2014,05,02,01,29,12.50
2014,05,02,01,30,12.50
2014,05,02,01,31,12.40
2014,05,02,01,32,12.40
2014,05,02,01,33,12.40
2014,05,02,01,34,12.40
2014,05,02,01,35,12.40
2014,05,02,01,36,12.40
2014,05,02,01,37,12.40
2014,05,02,01,38,12.30
2014,05,02,01,39,12.30
2014,05,02,01,40,12.30
2014,05,02,01,41,12.30
2014,05,02,01,42,12.30
2014,05,02,01,43,12.20
2014,05,02,01,44,12.20
2014,05,02,01,45,12.20
2014,05,02,01,46,12.10
2014,05,02,01,47,12.10
2014,05,02,01,48,12.10
2014,05,02,01,49,12.00
2014,05,02,01,50,12.00
2014,05,02,01,51,12.00
2014,05,02,01,52,11.90
2014,05,02,01,53,11.90
2014,05,02,01,54,11.90
2014,05,02,01,55,11.90
2014,05,02,01,56,11.80
2014,05,02,01,57,11.80
2014,05,02,01,58,11.80
2014,05,02,01,59,11.80
2014,05,02,02,00,11.70
2014,05,02,02,01,11.70
2014,05,02,02,02,11.70
2014,05,02,02,03,11.70
2014,05,02,02,04,11.70
2014,05,02,02,05,11.70
2014,05,02,02,06,11.60
2014,05,02,02,07,11.60
2014,05,02,02,08,11.60
2014,05,02,02,09,11.60
2014,05,02,02,10,11.60
2014,05,02,02,11,11.60
2014,05,02,02,12,11.60
2014,05,02,02,13,11.60
2014,05,02,02,14,11.60
2014,05,02,02,15,11.60
2014,05,02,02,16,11.60
2014,05,02,02,17,11.60
2014,05,02,02,18,11.60
2014,05,02,02,19,11.60
2014,05,02,02,20,11.60
2014,05,02,02,21,11.50
2014,05,02,02,22,11.60
2014,05,02,02,23,11.60
2014,05,02,02,24,11.60
2014,05,02,02,25,11.60
2014,05,02,02,26,11.60
2014,05,02,02,27,11.60
2014,05,02,02,28,11.60
2014,05,02,02,29,11.60
2014,05,02,02,30,11.60
2014,05,02,02,31,11.60
2014,05,02,02,32,11.70
2014,05,02,02,33,11.70
2014,05,02,02,34,11.70
2014,05,02,02,35,11.70
2014,05,02,02,36,11.70
2014,05,02,02,37,11.70
2014,05,02,02,38,11.70
2014,05,02,02,39,11.70
2014,05,02,02,40,11.70
2014,05,02,02,41,11.70
2014,05,02,02,42,11.60
2014,05,02,02,43,11.60
2014,05,02,02,44,11.60
2014,05,02,02,45,11.60
2014,05,02,02,46,11.50
2014,05,02,02,47,11.50
2014,05,02,02,48,11.40
2014,05,02,02,49,11.40
2014,05,02,02,50,11.40
2014,05,02,02,51,11.30
2014,05,02,02,52,11.30
2014,05,02,02,53,11.30
2014,05,02,02,54,11.30
2014,05,02,02,55,11.20
2014,05,02,02,56,11.20
2014,05,02,02,57,11.20
2014,05,02,02,58,11.20
2014,05,02,02,59,11.20
2014,05,02,03,00,11.20
2014,05,02,03,01,11.20
2014,05,02,03,02,11.20
2014,05,02,03,03,11.20
2014,05,02,03,04,11.20
2014,05,02,03,05,11.20
2014,05,02,03,06,11.20
2014,05,02,03,07,11.30
2014,05,02,03,08,11.20
2014,05,02,03,09,11.20
2014,05,02,03,10,11.20
2014,05,02,03,11,11.20
2014,05,02,03,12,11.30
2014,05,02,03,13,11.30
2014,05,02,03,14,11.30
2014,05,02,03,15,11.30
2014,05,02,03,16,11.30
2014,05,02,03,17,11.30
2014,05,02,03,18,11.20
2014,05,02,03,19,11.30
2014,05,02,03,20,11.30
2014,05,02,03,21,11.30
2014,05,02,03,22,11.30
2014,05,02,03,23,11.30
2014,05,02,03,24,11.30
2014,05,02,03,25,11.30
2014,05,02,03,26,11.30
2014,05,02,03,27,11.30
2014,05,02,03,28,11.30
2014,05,02,03,29,11.30
2014,05,02,03,30,11.30
2014,05,02,03,31,11.30
2014,05,02,03,32,11.30
2014,05,02,03,33,11.30
2014,05,02,03,34,11.30
2014,05,02,03,35,11.30
2014,05,02,03,36,11.30
2014,05,02,03,37,11.30
2014,05,02,03,38,11.20
2014,05,02,03,39,11.20
2014,05,02,03,40,11.20
2014,05,02,03,41,11.20
2014,05,02,03,42,11.20
2014,05,02,03,43,11.20
2014,05,02,03,44,11.20
2014,05,02,03,45,11.10
2014,05,02,03,46,11.10
2014,05,02,03,47,11.10
2014,05,02,03,48,11.10
2014,05,02,03,49,11.10
2014,05,02,03,50,11.10
2014,05,02,03,51,11.10
2014,05,02,03,52,11.10
2014,05,02,03,53,11.10
2014,05,02,03,54,11.00
2014,05,02,03,55,11.00
2014,05,02,03,56,11.00
2014,05,02,03,57,11.00
2014,05,02,03,58,11.00
2014,05,02,03,59,11.00
2014,05,02,04,00,10.90
2014,05,02,04,01,10.90
2014,05,02,04,02,10.90
2014,05,02,04,03,10.90
2014,05,02,04,04,10.90
2014,05,02,04,05,10.90
2014,05,02,04,06,10.90
2014,05,02,04,07,10.90
2014,05,02,04,08,10.90
2014,05,02,04,09,10.80
2014,05,02,04,10,10.80
2014,05,02,04,11,10.80
2014,05,02,04,12,10.80
2014,05,02,04,13,10.80
2014,05,02,04,14,10.80
2014,05,02,04,15,10.80
2014,05,02,04,16,10.80
2014,05,02,04,17,10.80
2014,05,02,04,18,10.80
2014,05,02,04,19,10.80
2014,05,02,04,20,10.70
2014,05,02,04,21,10.70
2014,05,02,04,22,10.70
2014,05,02,04,23,10.70
2014,05,02,04,24,10.70
2014,05,02,04,25,10.70
2014,05,02,04,26,10.60
2014,05,02,04,27,10.60
2014,05,02,04,28,10.60
2014,05,02,04,29,10.60
2014,05,02,04,30,10.60
2014,05,02,04,31,10.50
2014,05,02,04,32,10.50
2014,05,02,04,33,10.50
2014,05,02,04,34,10.50
2014,05,02,04,35,10.50
2014,05,02,04,36,10.40
2014,05,02,04,37,10.40
2014,05,02,04,38,10.40
2014,05,02,04,39,10.40
2014,05,02,04,40,10.40
2014,05,02,04,41,10.40
2014,05,02,04,42,10.40
2014,05,02,04,43,10.30
2014,05,02,04,44,10.30
2014,05,02,04,45,10.30
2014,05,02,04,46,10.30
2014,05,02,04,47,10.30
2014,05,02,04,48,10.30
2014,05,02,04,49,10.30
2014,05,02,04,50,10.30
2014,05,02,04,51,10.30
2014,05,02,04,52,10.20
2014,05,02,04,53,10.20
2014,05,02,04,54,10.20
2014,05,02,04,55,10.20
2014,05,02,04,56,10.20
2014,05,02,04,57,10.20
2014,05,02,04,58,10.20
2014,05,02,04,59,10.20
2014,05,02,05,00,10.20
2014,05,02,05,01,10.20
2014,05,02,05,02,10.20
2014,05,02,05,03,10.10
2014,05,02,05,04,10.10
2014,05,02,05,05,10.10
2014,05,02,05,06,10.10
2014,05,02,05,07,10.10
2014,05,02,05,08,10.10
2014,05,02,05,09,10.00
2014,05,02,05,10,10.00
2014,05,02,05,11,10.00
2014,05,02,05,12,10.00
2014,05,02,05,13,10.00
2014,05,02,05,14,10.00
2014,05,02,05,15,10.00
2014,05,02,05,16,10.00
2014,05,02,05,17,10.00
2014,05,02,05,18,10.00
2014,05,02,05,19,10.00
2014,05,02,05,20,10.00
2014,05,02,05,21,10.00
2014,05,02,05,22,10.10
2014,05,02,05,23,10.00
2014,05,02,05,24,10.10
2014,05,02,05,25,10.10
2014,05,02,05,26,10.10
2014,05,02,05,27,10.10
2014,05,02,05,28,10.10
2014,05,02,05,29,10.10
2014,05,02,05,30,10.10
2014,05,02,05,31,10.10
2014,05,02,05,32,10.10
2014,05,02,05,33,10.10
2014,05,02,05,34,10.10
2014,05,02,05,35,10.10
2014,05,02,05,36,10.10
2014,05,02,05,37,10.00
2014,05,02,05,38,10.00
2014,05,02,05,39,10.00
2014,05,02,05,40,9.90
2014,05,02,05,41,9.90
2014,05,02,05,42,9.90
2014,05,02,05,43,9.80
2014,05,02,05,44,9.80
2014,05,02,05,45,9.80
2014,05,02,05,46,9.70
2014,05,02,05,47,9.70
2014,05,02,05,48,9.70
2014,05,02,05,49,9.70
2014,05,02,05,50,9.60
2014,05,02,05,51,9.60
2014,05,02,05,52,9.60
2014,05,02,05,53,9.60
2014,05,02,05,54,9.50
2014,05,02,05,55,9.50
2014,05,02,05,56,9.50
2014,05,02,05,57,9.50
2014,05,02,05,58,9.40
2014,05,02,05,59,9.40
2014,05,02,06,00,9.40
2014,05,02,06,01,9.40
2014,05,02,06,02,9.30
2014,05,02,06,03,9.30
2014,05,02,06,04,9.30
2014,05,02,06,05,9.30
2014,05,02,06,06,9.30
2014,05,02,06,07,9.30
2014,05,02,06,08,9.20
2014,05,02,06,09,9.20
2014,05,02,06,10,9.20
2014,05,02,06,11,9.20
2014,05,02,06,12,9.20
2014,05,02,06,13,9.20
2014,05,02,06,14,9.20
2014,05,02,06,15,9.20
2014,05,02,06,16,9.20
2014,05,02,06,17,9.20
2014,05,02,06,18,9.20
2014,05,02,06,19,9.20
2014,05,02,06,20,9.20
2014,05,02,06,21,9.20
2014,05,02,06,22,9.20
2014,05,02,06,23,9.20
2014,05,02,06,24,9.20
2014,05,02,06,25,9.20
2014,05,02,06,26,9.20
2014,05,02,06,27,9.20
2014,05,02,06,28,9.20
2014,05,02,06,29,9.20
2014,05,02,06,30,9.20
2014,05,02,06,31,9.20
2014,05,02,06,32,9.20
2014,05,02,06,33,9.20
2014,05,02,06,34,9.20
2014,05,02,06,35,9.20
2014,05,02,06,36,9.20
2014,05,02,06,37,9.20
2014,05,02,06,38,9.20
2014,05,02,06,39,9.20
2014,05,02,06,40,9.20
2014,05,02,06,41,9.20
2014,05,02,06,42,9.20
2014,05,02,06,43,9.20
2014,05,02,06,44,9.20
2014,05,02,06,45,9.20
2014,05,02,06,46,9.20
2014,05,02,06,47,9.20
2014,05,02,06,48,9.20
2014,05,02,06,49,9.20
2014,05,02,06,50,9.20
2014,05,02,06,51,9.20
2014,05,02,06,52,9.20
2014,05,02,06,53,9.20
2014,05,02,06,54,9.20
2014,05,02,06,55,9.20
2014,05,02,06,56,9.20
2014,05,02,06,57,9.30
2014,05,02,06,58,9.30
2014,05,02,06,59,9.30
2014,05,02,07,00,9.30
2014,05,02,07,01,9.30
2014,05,02,07,02,9.30
2014,05,02,07,03,9.30
2014,05,02,07,04,9.30
2014,05,02,07,05,9.40
2014,05,02,07,06,9.40
2014,05,02,07,07,9.40
2014,05,02,07,08,9.40
2014,05,02,07,09,9.50
2014,05,02,07,10,9.50
2014,05,02,07,11,9.50
2014,05,02,07,12,9.60
2014,05,02,07,13,9.60
2014,05,02,07,14,9.60
2014,05,02,07,15,9.60
2014,05,02,07,16,9.60
2014,05,02,07,17,9.70
2014,05,02,07,18,9.70
2014,05,02,07,19,9.70
2014,05,02,07,20,9.70
2014,05,02,07,21,9.80
2014,05,02,07,22,9.80
2014,05,02,07,23,9.80
2014,05,02,07,24,9.80
2014,05,02,07,25,9.80
2014,05,02,07,26,9.90
2014,05,02,07,27,9.90
2014,05,02,07,28,9.90
2014,05,02,07,29,10.00
2014,05,02,07,30,10.00
2014,05,02,07,31,10.10
2014,05,02,07,32,10.10
2014,05,02,07,33,10.10
2014,05,02,07,34,10.20
2014,05,02,07,35,10.20
2014,05,02,07,36,10.20
2014,05,02,07,37,10.20
2014,05,02,07,38,10.30
2014,05,02,07,39,10.30
2014,05,02,07,40,10.30
2014,05,02,07,41,10.40
2014,05,02,07,42,10.40
2014,05,02,07,43,10.40
2014,05,02,07,44,10.50
2014,05,02,07,45,10.50
2014,05,02,07,46,10.60
2014,05,02,07,47,10.60
2014,05,02,07,48,10.70
2014,05,02,07,49,10.70
2014,05,02,07,50,10.80
2014,05,02,07,51,10.80
2014,05,02,07,52,10.90
2014,05,02,07,53,10.90
2014,05,02,07,54,11.00
2014,05,02,07,55,11.00
2014,05,02,07,56,11.10
2014,05,02,07,57,11.10
2014,05,02,07,58,11.20
2014,05,02,07,59,11.20
2014,05,02,08,00,11.30
2014,05,02,08,01,11.30
2014,05,02,08,02,11.40
2014,05,02,08,03,11.50
2014,05,02,08,04,11.50
2014,05,02,08,05,11.60
2014,05,02,08,06,11.70
2014,05,02,08,07,11.80
2014,05,02,08,08,11.80
2014,05,02,08,09,11.90
2014,05,02,08,10,12.10
2014,05,02,08,11,12.20
2014,05,02,08,12,12.30
2014,05,02,08,13,12.40
2014,05,02,08,14,12.50
2014,05,02,08,15,12.60
2014,05,02,08,16,12.70
2014,05,02,08,17,12.80
2014,05,02,08,18,12.90
2014,05,02,08,19,13.00
2014,05,02,08,20,13.10
2014,05,02,08,21,13.30
2014,05,02,08,22,13.40
2014,05,02,08,23,13.60
2014,05,02,08,24,13.70
2014,05,02,08,25,13.80
2014,05,02,08,26,13.90
2014,05,02,08,27,14.10
2014,05,02,08,28,14.20
2014,05,02,08,29,14.30
2014,05,02,08,30,14.40
2014,05,02,08,31,14.60
2014,05,02,08,32,14.70
2014,05,02,08,33,14.90
2014,05,02,08,34,15.00
2014,05,02,08,35,15.10
2014,05,02,08,36,15.30
2014,05,02,08,37,15.50
2014,05,02,08,38,15.70
2014,05,02,08,39,15.80
2014,05,02,08,40,16.00
2014,05,02,08,41,16.10
2014,05,02,08,42,16.20
2014,05,02,08,43,16.30
2014,05,02,08,44,16.40
2014,05,02,08,45,16.50
2014,05,02,08,46,16.60
2014,05,02,08,47,16.70
2014,05,02,08,48,16.80
2014,05,02,08,49,16.90
2014,05,02,08,50,16.90
2014,05,02,08,51,17.00
2014,05,02,08,52,17.10
2014,05,02,08,53,17.10
2014,05,02,08,54,17.20
2014,05,02,08,55,17.20
2014,05,02,08,56,17.30
2014,05,02,08,57,17.30
2014,05,02,08,58,17.40
2014,05,02,08,59,17.50
2014,05,02,09,00,17.50
2014,05,02,09,01,17.60
2014,05,02,09,02,17.70
2014,05,02,09,03,17.70
2014,05,02,09,04,17.80
2014,05,02,09,05,17.90
2014,05,02,09,06,18.00
2014,05,02,09,07,18.00
2014,05,02,09,08,18.10
2014,05,02,09,09,18.10
2014,05,02,09,10,18.20
2014,05,02,09,11,18.20
2014,05,02,09,12,18.20
2014,05,02,09,13,18.20
2014,05,02,09,14,18.30
2014,05,02,09,15,18.30
2014,05,02,09,16,18.30
2014,05,02,09,17,18.30
2014,05,02,09,18,18.30
2014,05,02,09,19,18.30
2014,05,02,09,20,18.30
2014,05,02,09,21,18.30
2014,05,02,09,22,18.30
2014,05,02,09,23,18.30
2014,05,02,09,24,18.30
2014,05,02,09,25,18.40
2014,05,02,09,26,18.40
2014,05,02,09,27,18.40
2014,05,02,09,28,18.40
2014,05,02,09,29,18.40
2014,05,02,09,30,18.50
2014,05,02,09,31,18.50
2014,05,02,09,32,18.50
2014,05,02,09,33,18.50
2014,05,02,09,34,18.40
2014,05,02,09,35,18.40
2014,05,02,09,36,18.40
2014,05,02,09,37,18.40
2014,05,02,09,38,18.40
2014,05,02,09,39,18.40
2014,05,02,09,40,18.40
2014,05,02,09,41,18.50
2014,05,02,09,42,18.50
2014,05,02,09,43,18.50
2014,05,02,09,44,18.50
2014,05,02,09,45,18.60
2014,05,02,09,46,18.60
2014,05,02,09,47,18.60
2014,05,02,09,48,18.60
2014,05,02,09,49,18.60
2014,05,02,09,50,18.60
2014,05,02,09,51,18.60
2014,05,02,09,52,18.60
2014,05,02,09,53,18.60
2014,05,02,09,54,18.60
2014,05,02,09,55,18.50
2014,05,02,09,56,18.50
2014,05,02,09,57,18.40
2014,05,02,09,58,18.30
2014,05,02,09,59,18.30
2014,05,02,10,00,18.20
2014,05,02,10,01,18.20
2014,05,02,10,02,18.10
2014,05,02,10,03,18.10
2014,05,02,10,04,18.00
2014,05,02,10,05,18.00
2014,05,02,10,06,17.90
2014,05,02,10,07,17.90
2014,05,02,10,08,17.80
2014,05,02,10,09,17.80
2014,05,02,10,10,17.80
2014,05,02,10,11,17.80
2014,05,02,10,12,17.80
2014,05,02,10,13,17.80
2014,05,02,10,14,17.70
2014,05,02,10,15,17.70
2014,05,02,10,16,17.70
2014,05,02,10,17,17.60
2014,05,02,10,18,17.60
2014,05,02,10,19,17.60
2014,05,02,10,20,17.50
2014,05,02,10,21,17.50
2014,05,02,10,22,17.40
2014,05,02,10,23,17.40
2014,05,02,10,24,17.30
2014,05,02,10,25,17.30
2014,05,02,10,26,17.30
2014,05,02,10,27,17.30
2014,05,02,10,28,17.20
2014,05,02,10,29,17.20
2014,05,02,10,30,17.10
2014,05,02,10,31,17.10
2014,05,02,10,32,17.10
2014,05,02,10,33,17.10
2014,05,02,10,34,17.00
2014,05,02,10,35,17.00
2014,05,02,10,36,17.00
2014,05,02,10,37,17.00
2014,05,02,10,38,17.00
2014,05,02,10,39,16.90
2014,05,02,10,40,16.90
2014,05,02,10,41,16.90
2014,05,02,10,42,16.90
2014,05,02,10,43,17.00
2014,05,02,10,44,17.00
2014,05,02,10,45,17.00
2014,05,02,10,46,17.00
2014,05,02,10,47,17.00
2014,05,02,10,48,17.10
2014,05,02,10,49,17.10
2014,05,02,10,50,17.10
2014,05,02,10,51,17.10
2014,05,02,10,52,17.10
2014,05,02,10,53,17.10
2014,05,02,10,54,17.20
2014,05,02,10,55,17.20
2014,05,02,10,56,17.20
2014,05,02,10,57,17.20
2014,05,02,10,58,17.20
2014,05,02,10,59,17.20
2014,05,02,11,00,17.20
2014,05,02,11,01,17.20
2014,05,02,11,02,17.30
2014,05,02,11,03,17.30
2014,05,02,11,04,17.30
2014,05,02,11,05,17.30
2014,05,02,11,06,17.30
2014,05,02,11,07,17.40
2014,05,02,11,08,17.40
2014,05,02,11,09,17.40
2014,05,02,11,10,17.50
2014,05,02,11,11,17.50
2014,05,02,11,12,17.50
2014,05,02,11,13,17.60
2014,05,02,11,14,17.60
2014,05,02,11,15,17.60
2014,05,02,11,16,17.70
2014,05,02,11,17,17.70
2014,05,02,11,18,17.80
2014,05,02,11,19,17.90
2014,05,02,11,20,17.90
2014,05,02,11,21,18.00
2014,05,02,11,22,18.00
2014,05,02,11,23,18.10
2014,05,02,11,24,18.10
2014,05,02,11,25,18.20
2014,05,02,11,26,18.20
2014,05,02,11,27,18.20
2014,05,02,11,28,18.30
2014,05,02,11,29,18.30
2014,05,02,11,30,18.30
2014,05,02,11,31,18.30
2014,05,02,11,32,18.40
2014,05,02,11,33,18.40
2014,05,02,11,34,18.40
2014,05,02,11,35,18.40
2014,05,02,11,36,18.50
2014,05,02,11,37,18.50
2014,05,02,11,38,18.50
2014,05,02,11,39,18.50
2014,05,02,11,40,18.60
2014,05,02,11,41,18.60
2014,05,02,11,42,18.70
2014,05,02,11,43,18.70
2014,05,02,11,44,18.80
2014,05,02,11,45,18.90
2014,05,02,11,46,18.90
2014,05,02,11,47,18.90
2014,05,02,11,48,19.00
2014,05,02,11,49,19.00
2014,05,02,11,50,19.10
2014,05,02,11,51,19.10
2014,05,02,11,52,19.10
2014,05,02,11,53,19.10
2014,05,02,11,54,19.10
2014,05,02,11,55,19.20
2014,05,02,11,56,19.20
2014,05,02,11,57,19.30
2014,05,02,11,58,19.30
2014,05,02,11,59,19.40
2014,05,02,12,00,19.40
2014,05,02,12,01,19.50
2014,05,02,12,02,19.50
2014,05,02,12,03,19.60
2014,05,02,12,04,19.70
2014,05,02,12,05,19.70
2014,05,02,12,06,19.70
2014,05,02,12,07,19.80
2014,05,02,12,08,19.80
2014,05,02,12,09,19.80
2014,05,02,12,10,19.80
2014,05,02,12,11,19.80
2014,05,02,12,12,19.80
2014,05,02,12,13,19.80
2014,05,02,12,14,19.80
2014,05,02,12,15,19.80
2014,05,02,12,16,19.80
2014,05,02,12,17,19.80
2014,05,02,12,18,19.80
2014,05,02,12,19,19.90
2014,05,02,12,20,19.90
2014,05,02,12,21,20.00
2014,05,02,12,22,20.10
2014,05,02,12,23,20.10
2014,05,02,12,24,20.10
2014,05,02,12,25,20.20
2014,05,02,12,26,20.20
2014,05,02,12,27,20.20
2014,05,02,12,28,20.30
2014,05,02,12,29,20.30
2014,05,02,12,30,20.30
2014,05,02,12,31,20.40
2014,05,02,12,32,20.40
2014,05,02,12,33,20.40
2014,05,02,12,34,20.40
2014,05,02,12,35,20.40
2014,05,02,12,36,20.50
2014,05,02,12,37,20.50
2014,05,02,12,38,20.50
2014,05,02,12,39,20.50
2014,05,02,12,40,20.50
2014,05,02,12,41,20.50
2014,05,02,12,42,20.40
2014,05,02,12,43,20.40
2014,05,02,12,44,20.30
2014,05,02,12,45,20.30
2014,05,02,12,46,20.20
2014,05,02,12,47,20.20
2014,05,02,12,48,20.20
2014,05,02,12,49,20.10
2014,05,02,12,50,20.10
2014,05,02,12,51,20.10
2014,05,02,12,52,20.10
2014,05,02,12,53,20.20
2014,05,02,12,54,20.20
2014,05,02,12,55,20.20
2014,05,02,12,56,20.30
2014,05,02,12,57,20.30
2014,05,02,12,58,20.40
2014,05,02,12,59,20.50
2014,05,02,13,00,20.50
2014,05,02,13,01,20.60
2014,05,02,13,02,20.60
2014,05,02,13,03,20.60
2014,05,02,13,04,20.60
2014,05,02,13,05,20.70
2014,05,02,13,06,20.70
2014,05,02,13,07,20.60
2014,05,02,13,08,20.60
2014,05,02,13,09,20.60
2014,05,02,13,10,20.50
2014,05,02,13,11,20.50
2014,05,02,13,12,20.50
2014,05,02,13,13,20.40
2014,05,02,13,14,20.40
2014,05,02,13,15,20.40
2014,05,02,13,16,20.40
2014,05,02,13,17,20.40
2014,05,02,13,18,20.40
2014,05,02,13,19,20.40
2014,05,02,13,20,20.40
2014,05,02,13,21,20.40
2014,05,02,13,22,20.40
2014,05,02,13,23,20.40
2014,05,02,13,24,20.40
2014,05,02,13,25,20.40
2014,05,02,13,26,20.40
2014,05,02,13,27,20.50
2014,05,02,13,28,20.50
2014,05,02,13,29,20.60
2014,05,02,13,30,20.60
2014,05,02,13,31,20.60
2014,05,02,13,32,20.60
2014,05,02,13,33,20.60
2014,05,02,13,34,20.60
2014,05,02,13,35,20.60
2014,05,02,13,36,20.60
2014,05,02,13,37,20.70
2014,05,02,13,38,20.70
2014,05,02,13,39,20.70
2014,05,02,13,40,20.70
2014,05,02,13,41,20.70
2014,05,02,13,42,20.70
2014,05,02,13,43,20.70
2014,05,02,13,44,20.70
2014,05,02,13,45,20.70
2014,05,02,13,46,20.80
2014,05,02,13,47,20.80
2014,05,02,13,48,20.80
2014,05,02,13,49,20.80
2014,05,02,13,50,20.80
2014,05,02,13,51,20.80
2014,05,02,13,52,20.80
2014,05,02,13,53,20.80
2014,05,02,13,54,20.70
2014,05,02,13,55,20.70
2014,05,02,13,56,20.60
2014,05,02,13,57,20.50
2014,05,02,13,58,20.40
2014,05,02,13,59,20.30
2014,05,02,14,00,20.30
2014,05,02,14,01,20.20
2014,05,02,14,02,20.10
2014,05,02,14,03,20.10
2014,05,02,14,04,20.10
2014,05,02,14,05,20.10
2014,05,02,14,06,20.00
2014,05,02,14,07,20.00
2014,05,02,14,08,19.90
2014,05,02,14,09,19.90
2014,05,02,14,10,19.80
2014,05,02,14,11,19.70
2014,05,02,14,12,19.70
2014,05,02,14,13,19.60
2014,05,02,14,14,19.50
2014,05,02,14,15,19.40
2014,05,02,14,16,19.30
2014,05,02,14,17,19.20
2014,05,02,14,18,19.20
2014,05,02,14,19,19.10
2014,05,02,14,20,19.10
2014,05,02,14,21,19.00
2014,05,02,14,22,19.00
2014,05,02,14,23,18.90
2014,05,02,14,24,18.90
2014,05,02,14,25,18.90
2014,05,02,14,26,18.80
2014,05,02,14,27,18.80
2014,05,02,14,28,18.80
2014,05,02,14,29,18.80
2014,05,02,14,30,18.80
2014,05,02,14,31,18.80
2014,05,02,14,32,18.80
2014,05,02,14,33,18.80
2014,05,02,14,34,18.70
2014,05,02,14,35,18.70
2014,05,02,14,36,18.60
2014,05,02,14,37,18.60
2014,05,02,14,38,18.60
2014,05,02,14,39,18.60
2014,05,02,14,40,18.60
2014,05,02,14,41,18.50
2014,05,02,14,42,18.50
2014,05,02,14,43,18.50
2014,05,02,14,44,18.40
2014,05,02,14,45,18.40
2014,05,02,14,46,18.40
2014,05,02,14,47,18.40
2014,05,02,14,48,18.40
2014,05,02,14,49,18.40
2014,05,02,14,50,18.40
2014,05,02,14,51,18.40
2014,05,02,14,52,18.40
2014,05,02,14,53,18.40
2014,05,02,14,54,18.40
2014,05,02,14,55,18.40
2014,05,02,14,56,18.40
2014,05,02,14,57,18.40
2014,05,02,14,58,18.30
2014,05,02,14,59,18.30
2014,05,02,15,00,18.30
2014,05,02,15,01,18.30
2014,05,02,15,02,18.30
2014,05,02,15,03,18.30
2014,05,02,15,04,18.30
2014,05,02,15,05,18.30
2014,05,02,15,06,18.40
2014,05,02,15,07,18.40
2014,05,02,15,08,18.40
2014,05,02,15,09,18.40
2014,05,02,15,10,18.50
2014,05,02,15,11,18.50
2014,05,02,15,12,18.50
2014,05,02,15,13,18.50
2014,05,02,15,14,18.50
2014,05,02,15,15,18.50
2014,05,02,15,16,18.50
2014,05,02,15,17,18.50
2014,05,02,15,18,18.40
2014,05,02,15,19,18.40
2014,05,02,15,20,18.40
2014,05,02,15,21,18.30
2014,05,02,15,22,18.30
2014,05,02,15,23,18.30
2014,05,02,15,24,18.30
2014,05,02,15,25,18.30
2014,05,02,15,26,18.30
2014,05,02,15,27,18.30
2014,05,02,15,28,18.30
2014,05,02,15,29,18.30
2014,05,02,15,30,18.30
2014,05,02,15,31,18.20
2014,05,02,15,32,18.20
2014,05,02,15,33,18.20
2014,05,02,15,34,18.30
2014,05,02,15,35,18.30
2014,05,02,15,36,18.30
2014,05,02,15,37,18.30
2014,05,02,15,38,18.30
2014,05,02,15,39,18.30
2014,05,02,15,40,18.30
2014,05,02,15,41,18.30
2014,05,02,15,42,18.40
2014,05,02,15,43,18.40
2014,05,02,15,44,18.40
2014,05,02,15,45,18.30
2014,05,02,15,46,18.30
2014,05,02,15,47,18.30
2014,05,02,15,48,18.30
2014,05,02,15,49,18.40
2014,05,02,15,50,18.40
2014,05,02,15,51,18.40
2014,05,02,15,52,18.40
2014,05,02,15,53,18.40
2014,05,02,15,54,18.40
2014,05,02,15,55,18.50
2014,05,02,15,56,18.50
2014,05,02,15,57,18.50
2014,05,02,15,58,18.60
2014,05,02,15,59,18.60
2014,05,02,16,00,18.60
2014,05,02,16,01,18.70
2014,05,02,16,02,18.70
2014,05,02,16,03,18.70
2014,05,02,16,04,18.70
2014,05,02,16,05,18.80
2014,05,02,16,06,18.80
2014,05,02,16,07,18.80
2014,05,02,16,08,18.80
2014,05,02,16,09,18.80
2014,05,02,16,10,18.80
2014,05,02,16,11,18.80
2014,05,02,16,12,18.80
2014,05,02,16,13,18.80
2014,05,02,16,14,18.80
2014,05,02,16,15,18.80
2014,05,02,16,16,18.80
2014,05,02,16,17,18.80
2014,05,02,16,18,18.80
2014,05,02,16,19,18.80
2014,05,02,16,20,18.80
2014,05,02,16,21,18.80
2014,05,02,16,22,18.80
2014,05,02,16,23,18.90
2014,05,02,16,24,18.90
2014,05,02,16,25,18.90
2014,05,02,16,26,18.90
2014,05,02,16,27,18.90
2014,05,02,16,28,18.90
2014,05,02,16,29,19.00
2014,05,02,16,30,19.00
2014,05,02,16,31,19.00
2014,05,02,16,32,19.00
2014,05,02,16,33,19.00
2014,05,02,16,34,19.00
2014,05,02,16,35,19.00
2014,05,02,16,36,19.00
2014,05,02,16,37,19.00
2014,05,02,16,38,19.00
2014,05,02,16,39,19.00
2014,05,02,16,40,19.00
2014,05,02,16,41,19.00
2014,05,02,16,42,19.00
2014,05,02,16,43,18.90
2014,05,02,16,44,18.90
2014,05,02,16,45,18.90
2014,05,02,16,46,18.90
2014,05,02,16,47,18.90
2014,05,02,16,48,18.80
2014,05,02,16,49,18.80
2014,05,02,16,50,18.70
2014,05,02,16,51,18.70
2014,05,02,16,52,18.60
2014,05,02,16,53,18.50
2014,05,02,16,54,18.50
2014,05,02,16,55,18.40
2014,05,02,16,56,18.40
2014,05,02,16,57,18.30
2014,05,02,16,58,18.30
2014,05,02,16,59,18.30
2014,05,02,17,00,18.20
2014,05,02,17,01,18.20
2014,05,02,17,02,18.20
2014,05,02,17,03,18.20
2014,05,02,17,04,18.20
2014,05,02,17,05,18.20
2014,05,02,17,06,18.20
2014,05,02,17,07,18.20
2014,05,02,17,08,18.20
2014,05,02,17,09,18.10
2014,05,02,17,10,18.10
2014,05,02,17,11,18.10
2014,05,02,17,12,18.00
2014,05,02,17,13,18.00
2014,05,02,17,14,17.90
2014,05,02,17,15,17.90
2014,05,02,17,16,17.80
2014,05,02,17,17,17.80
2014,05,02,17,18,17.80
2014,05,02,17,19,17.80
2014,05,02,17,20,17.70
2014,05,02,17,21,17.70
2014,05,02,17,22,17.70
2014,05,02,17,23,17.70
2014,05,02,17,24,17.60